Weather History for Miami, FL

Change the Weather History Date:

Wednesday, March 7, 2012

  Actual Average Record
Temperature  
Mean Temperature 74 °F 72 °F  
Max Temperature 77 °F 80 °F 89 °F (2003)
Min Temperature 71 °F 64 °F 35 °F (1920)
Degree Days  
Heating Degree Days 0 1  
Month to date heating degree days 0 7  
Since 1 July heating degree days 55 123  
Cooling Degree Days 9 7  
Month to date cooling degree days 62 49  
Year to date cooling degree days 471 371  
Growing Degree Days 23 (Base 50)    
Moisture  
Dew Point 64 °F    
Average Humidity 74    
Maximum Humidity 79    
Minimum Humidity 68    
Precipitation  
Precipitation 0.02 in 0.08 in 1.59 in (1917)
Month to date precipitation 0.07 0.58  
Year to date precipitation 3.66 4.45  
Snow  
Snow 0.00 in - - ()
Month to date snowfall 0.0  
Since 1 July snowfall 0.0  
Snow Depth 0.00 in    
Sea Level Pressure  
Sea Level Pressure 30.29 in    
Wind  
Wind Speed 16 mph (ENE)    
Max Wind Speed 26 mph    
Max Gust Speed 33 mph    
Visibility 9 miles    
Events Rain    
T = Trace of Precipitation, MM = Missing Value Source: NWS Daily Summary

Daily Weather History Graph

Daily Weather History Graph

Search for Another Location

Airport:

Trip Planner

Search our weather history database for the weather conditions in past years. The results will help you decide how hot, cold, wet, or windy it might be!

Date:

Astronomy

Mar. 07, 2012 Rise Set
Actual Time 6:38 AM EST 6:26 PM EST
Civil Twilight 6:15 AM EST 6:49 PM EST
Nautical Twilight 5:48 AM EST 7:16 PM EST
Astronomical Twilight 5:21 AM EST 7:42 PM EST
Moon 5:58 PM EST (3/7) 5:46 AM EST (3/7)
Length of Visible Light 12h 34m
Length of Day
11h 48m
Waxing Gibbous, 99% of the Moon is Illuminated
Mar 7
Waxing Gibbous
Mar 8
Full
Mar 14
Last Quarter
Mar 22
New
Mar 30
First Quarter

Hourly Weather History & Observations

Time (EST) Temp. Dew Point Humidity Pressure Visibility Wind Dir Wind Speed Gust Speed Precip Events Conditions
12:53 AM 72.0 °F 61.0 °F 68% 30.32 in 8.0 mi East 21.9 mph 27.6 mph 0.00 in Rain Light Rain
1:18 AM 71.6 °F 60.8 °F 69% 30.31 in 8.0 mi East 18.4 mph 31.1 mph 0.00 in   Overcast
1:53 AM 72.0 °F 60.1 °F 66% 30.30 in 8.0 mi East 21.9 mph 29.9 mph 0.00 in   Overcast
2:53 AM 72.0 °F 60.1 °F 66% 30.29 in 10.0 mi East 18.4 mph 26.5 mph N/A   Overcast
3:00 AM 71.6 °F 60.8 °F 69% 30.29 in 10.0 mi East 18.4 mph 29.9 mph N/A   Overcast
3:53 AM 72.0 °F 60.1 °F 66% 30.28 in 10.0 mi ENE 16.1 mph 29.9 mph N/A   Overcast
4:53 AM 72.0 °F 60.1 °F 66% 30.28 in 10.0 mi East 11.5 mph 21.9 mph N/A   Overcast
5:53 AM 72.0 °F 61.0 °F 68% 30.30 in 10.0 mi ENE 17.3 mph 28.8 mph N/A   Overcast
6:53 AM 72.0 °F 61.0 °F 68% 30.31 in 7.0 mi ENE 15.0 mph 24.2 mph N/A   Overcast
7:43 AM 71.6 °F 62.6 °F 73% 30.32 in 7.0 mi East 17.3 mph 25.3 mph 0.00 in Rain Light Rain
7:53 AM 71.1 °F 62.1 °F 73% 30.33 in 7.0 mi East 18.4 mph 25.3 mph 0.00 in Rain Light Rain
8:10 AM 73.4 °F 62.6 °F 69% 30.33 in 10.0 mi East 16.1 mph 25.3 mph N/A   Overcast
8:53 AM 72.0 °F 64.0 °F 76% 30.34 in 10.0 mi ENE 11.5 mph - 0.00 in Rain Light Rain
9:53 AM 73.9 °F 63.0 °F 68% 30.35 in 10.0 mi East 17.3 mph 26.5 mph 0.00 in   Mostly Cloudy
10:48 AM 73.4 °F 64.4 °F 73% 30.34 in 10.0 mi ENE 15.0 mph 24.2 mph 0.00 in   Overcast
10:53 AM 73.9 °F 64.9 °F 73% 30.34 in 10.0 mi East 17.3 mph 27.6 mph 0.00 in   Overcast
11:53 AM 75.9 °F 64.0 °F 67% 30.33 in 10.0 mi East 20.7 mph 27.6 mph N/A   Overcast
12:53 PM 75.9 °F 64.0 °F 67% 30.31 in 10.0 mi East 23.0 mph 28.8 mph 0.00 in   Overcast
1:53 PM 75.0 °F 64.9 °F 71% 30.29 in 10.0 mi ENE 13.8 mph 26.5 mph 0.00 in   Overcast
2:53 PM 73.9 °F 66.0 °F 76% 30.27 in 7.0 mi East 18.4 mph 29.9 mph 0.00 in Rain Light Rain
3:53 PM 75.9 °F 66.9 °F 74% 30.26 in 10.0 mi East 16.1 mph 25.3 mph 0.01 in Rain Light Rain
4:46 PM 73.4 °F 66.2 °F 78% 30.25 in 10.0 mi East 16.1 mph 24.2 mph 0.00 in Rain Light Rain
4:53 PM 73.9 °F 66.0 °F 76% 30.26 in 10.0 mi East 16.1 mph 21.9 mph 0.00 in   Mostly Cloudy
5:53 PM 75.0 °F 64.9 °F 71% 30.26 in 10.0 mi East 15.0 mph 20.7 mph 0.00 in   Scattered Clouds
6:53 PM 73.0 °F 66.0 °F 79% 30.26 in 10.0 mi East 13.8 mph - 0.01 in   Mostly Cloudy
7:53 PM 73.0 °F 66.0 °F 79% 30.27 in 10.0 mi East 13.8 mph - 0.00 in   Scattered Clouds
8:53 PM 73.9 °F 66.0 °F 76% 30.27 in 10.0 mi East 12.7 mph - 0.00 in   Scattered Clouds
9:53 PM 73.0 °F 66.0 °F 79% 30.28 in 10.0 mi East 15.0 mph 21.9 mph N/A   Mostly Cloudy
10:53 PM 73.0 °F 64.9 °F 76% 30.27 in 10.0 mi East 19.6 mph 25.3 mph 0.00 in Rain Light Rain
11:44 PM 73.4 °F 66.2 °F 78% 30.26 in 8.0 mi East 12.7 mph 19.6 mph 0.00 in   Mostly Cloudy
11:53 PM 73.9 °F 66.9 °F 79% 30.26 in 8.0 mi ENE 9.2 mph 18.4 mph 0.00 in   Mostly Cloudy